| time (UTC) | temp F | wind direction | speed MPH | gust MPH | rain 1hr in | rain 24hr in | rain mn in | humidity % | barometer mb |
| 20260508202629 | 57 | 271 | 1.0 | 2.0 | 0.00 | 0.00 | 0.00 | 40 | 1005.9 |
| 20260508202126 | 57 | 270 | 1.0 | 2.0 | 0.00 | 0.00 | 0.00 | 43 | 1006.0 |
| 20260508201623 | 57 | 270 | 2.0 | 3.0 | 0.00 | 0.00 | 0.00 | 43 | 1005.9 |
| 20260508201119 | 57 | 263 | 0.0 | 1.0 | 0.00 | 0.00 | 0.00 | 46 | 1005.6 |
| 20260508200616 | 57 | 263 | 0.0 | 1.0 | 0.00 | 0.00 | 0.00 | 43 | 1005.8 |
| 20260508200112 | 57 | 262 | 2.0 | 2.0 | 0.00 | 0.00 | 0.00 | 42 | 1005.7 |
| 20260508195609 | 57 | 288 | 1.0 | 1.0 | 0.00 | 0.00 | 0.00 | 41 | 1005.6 |
| 20260508195106 | 57 | 305 | 0.0 | 1.0 | 0.00 | 0.00 | 0.00 | 41 | 1005.6 |
| 20260508194602 | 57 | 309 | 3.0 | 3.0 | 0.00 | 0.00 | 0.00 | 41 | 1005.7 |
| 20260508194059 | 57 | 319 | 1.0 | 2.0 | 0.00 | 0.00 | 0.00 | 40 | 1005.3 |
| 20260508193556 | 57 | 306 | 1.0 | 2.0 | 0.00 | 0.00 | 0.00 | 43 | 1005.3 |
| 20260508193053 | 57 | 307 | 2.0 | 2.0 | 0.00 | 0.00 | 0.00 | 41 | 1005.3 |
| 20260508192549 | 57 | 313 | 1.0 | 1.0 | 0.00 | 0.00 | 0.00 | 41 | 1005.4 |
| 20260508192047 | 57 | 316 | 1.0 | 1.0 | 0.00 | 0.00 | 0.00 | 42 | 1005.2 |
| 20260508191543 | 57 | 318 | 1.0 | 1.0 | 0.00 | 0.00 | 0.00 | 39 | 1005.3 |
| 20260508191040 | 57 | 329 | 2.0 | 3.0 | 0.00 | 0.00 | 0.00 | 38 | 1005.2 |
| 20260508190537 | 58 | 308 | 2.0 | 2.0 | 0.00 | 0.00 | 0.00 | 39 | 1004.9 |
| 20260508190033 | 58 | 304 | 1.0 | 1.0 | 0.00 | 0.00 | 0.00 | 39 | 1005.2 |
| 20260508185531 | 58 | 304 | 0.0 | 1.0 | 0.00 | 0.00 | 0.00 | 38 | 1005.2 |
| 20260508185028 | 58 | 304 | 1.0 | 2.0 | 0.00 | 0.00 | 0.00 | 39 | 1005.0 |
| 20260508184526 | 59 | 305 | 0.0 | 1.0 | 0.00 | 0.00 | 0.00 | 39 | 1005.2 |
| 20260508184022 | 59 | 306 | 1.0 | 1.0 | 0.00 | 0.00 | 0.00 | 37 | 1005.0 |
| 20260508183519 | 59 | 313 | 1.0 | 1.0 | 0.00 | 0.00 | 0.00 | 36 | 1005.0 |
| 20260508183015 | 59 | 313 | 0.0 | 0.0 | 0.00 | 0.00 | 0.00 | 38 | 1004.9 |
| 20260508182512 | 59 | 315 | 1.0 | 2.0 | 0.00 | 0.00 | 0.00 | 37 | 1004.9 |
| 20260508182008 | 59 | 319 | 0.0 | 1.0 | 0.00 | 0.00 | 0.00 | 35 | 1005.1 |
| 20260508181503 | 58 | 317 | 0.0 | 0.0 | 0.00 | 0.00 | 0.00 | 42 | 1004.9 |
| 20260508181001 | 58 | 316 | 1.0 | 1.0 | 0.00 | 0.00 | 0.00 | 41 | 1005.0 |
| 20260508180458 | 60 | 317 | 1.0 | 2.0 | 0.00 | 0.00 | 0.00 | 41 | 1005.1 |
| 20260508175954 | 59 | 326 | 0.0 | 1.0 | 0.00 | 0.00 | 0.00 | 41 | 1004.8 |
| 20260508175450 | 59 | 321 | 0.0 | 0.0 | 0.00 | 0.00 | 0.00 | 41 | 1005.0 |
| 20260508174948 | 59 | 334 | 0.0 | 1.0 | 0.00 | 0.00 | 0.00 | 44 | 1005.1 |
| 20260508174446 | 59 | 340 | 0.0 | 0.0 | 0.00 | 0.00 | 0.00 | 42 | 1005.1 |
| 20260508173942 | 60 | 305 | 1.0 | 2.0 | 0.00 | 0.00 | 0.00 | 40 | 1005.2 |
| 20260508173439 | 59 | 306 | 0.0 | 0.0 | 0.00 | 0.00 | 0.00 | 40 | 1004.9 |
| 20260508172935 | 59 | 306 | 0.0 | 0.0 | 0.00 | 0.00 | 0.00 | 39 | 1004.9 |
| 20260508172433 | 58 | 306 | 0.0 | 0.0 | 0.00 | 0.00 | 0.00 | 40 | 1005.0 |
| 20260508171929 | 58 | 306 | 0.0 | 0.0 | 0.00 | 0.00 | 0.00 | 42 | 1005.0 |
| 20260508171425 | 57 | 306 | 0.0 | 1.0 | 0.00 | 0.00 | 0.00 | 41 | 1005.1 |
| 20260508170922 | 57 | 309 | 0.0 | 1.0 | 0.00 | 0.00 | 0.00 | 42 | 1005.1 |
| 20260508170419 | 57 | 300 | 2.0 | 3.0 | 0.00 | 0.00 | 0.00 | 43 | 1005.0 |
| 20260508165916 | 58 | 296 | 0.0 | 0.0 | 0.00 | 0.00 | 0.00 | 40 | 1004.9 |
| 20260508165414 | 58 | 296 | 0.0 | 0.0 | 0.00 | 0.00 | 0.00 | 39 | 1004.9 |
| 20260508164909 | 58 | 294 | 1.0 | 1.0 | 0.00 | 0.00 | 0.00 | 38 | 1004.8 |
| 20260508164407 | 59 | 294 | 2.0 | 2.0 | 0.00 | 0.00 | 0.00 | 37 | 1005.1 |
| 20260508163904 | 60 | 300 | 2.0 | 2.0 | 0.00 | 0.00 | 0.00 | 37 | 1005.1 |
| 20260508163402 | 61 | 300 | 1.0 | 1.0 | 0.00 | 0.00 | 0.00 | 39 | 1005.2 |
| 20260508162857 | 61 | 300 | 2.0 | 2.0 | 0.00 | 0.00 | 0.00 | 39 | 1005.1 |
| 20260508162355 | 61 | 301 | 2.0 | 2.0 | 0.00 | 0.00 | 0.00 | 36 | 1005.2 |
| 20260508161851 | 61 | 306 | 1.0 | 2.0 | 0.00 | 0.00 | 0.00 | 39 | 1005.0 |
| 20260508161349 | 61 | 308 | 0.0 | 1.0 | 0.00 | 0.00 | 0.00 | 41 | 1005.0 |
| 20260508160846 | 62 | 332 | 3.0 | 3.0 | 0.00 | 0.00 | 0.00 | 34 | 1005.0 |
| 20260508160345 | 61 | 294 | 1.0 | 1.0 | 0.00 | 0.00 | 0.00 | 45 | 1005.1 |
| 20260508155840 | 59 | 294 | 0.0 | 0.0 | 0.00 | 0.00 | 0.00 | 41 | 1005.2 |
| 20260508155338 | 59 | 294 | 1.0 | 1.0 | 0.00 | 0.00 | 0.00 | 41 | 1004.9 |
| 20260508154835 | 61 | 294 | 0.0 | 1.0 | 0.00 | 0.00 | 0.00 | 37 | 1005.2 |
| 20260508154332 | 62 | 295 | 0.0 | 1.0 | 0.00 | 0.00 | 0.00 | 41 | 1005.4 |
| 20260508153828 | 63 | 295 | 2.0 | 2.0 | 0.00 | 0.00 | 0.00 | 36 | 1005.3 |
| 20260508153326 | 63 | 296 | 1.0 | 1.0 | 0.00 | 0.00 | 0.00 | 38 | 1005.3 |
| 20260508152821 | 61 | 295 | 1.0 | 1.0 | 0.00 | 0.00 | 0.00 | 38 | 1005.3 |
| 20260508152318 | 61 | 295 | 0.0 | 1.0 | 0.00 | 0.00 | 0.00 | 37 | 1005.3 |
| 20260508151815 | 61 | 295 | 1.0 | 1.0 | 0.00 | 0.00 | 0.00 | 41 | 1005.3 |
| 20260508151312 | 63 | 295 | 2.0 | 3.0 | 0.00 | 0.00 | 0.00 | 37 | 1005.3 |
| 20260508150808 | 61 | 295 | 0.0 | 0.0 | 0.00 | 0.00 | 0.00 | 37 | 1005.5 |
| 20260508150305 | 61 | 295 | 0.0 | 1.0 | 0.00 | 0.00 | 0.00 | 37 | 1005.6 |
| 20260508145802 | 63 | 295 | 0.0 | 1.0 | 0.00 | 0.00 | 0.00 | 34 | 1005.5 |
| 20260508145257 | 64 | 296 | 1.0 | 1.0 | 0.00 | 0.00 | 0.00 | 39 | 1005.7 |
| 20260508144754 | 63 | 296 | 1.0 | 1.0 | 0.00 | 0.00 | 0.00 | 37 | 1005.5 |
| 20260508144252 | 62 | 295 | 1.0 | 2.0 | 0.00 | 0.00 | 0.00 | 42 | 1005.5 |
| 20260508143749 | 61 | 295 | 3.0 | 3.0 | 0.00 | 0.00 | 0.00 | 41 | 1005.7 |
| 20260508143246 | 63 | 295 | 0.0 | 1.0 | 0.00 | 0.00 | 0.00 | 39 | 1005.7 |
| 20260508142743 | 62 | 295 | 1.0 | 1.0 | 0.00 | 0.00 | 0.00 | 37 | 1005.8 |
| 20260508142240 | 60 | 295 | 0.0 | 0.0 | 0.00 | 0.00 | 0.00 | 41 | 1005.7 |
| 20260508141736 | 60 | 325 | 0.0 | 1.0 | 0.00 | 0.00 | 0.00 | 39 | 1005.8 |
| 20260508141234 | 61 | 324 | 0.0 | 0.0 | 0.00 | 0.00 | 0.00 | 39 | 1005.9 |
| 20260508140731 | 62 | 300 | 1.0 | 1.0 | 0.00 | 0.00 | 0.00 | 36 | 1005.9 |
| 20260508140227 | 62 | 300 | 0.0 | 1.0 | 0.00 | 0.00 | 0.00 | 38 | 1005.9 |
| 20260508135724 | 61 | 299 | 0.0 | 0.0 | 0.00 | 0.00 | 0.00 | 42 | 1006.0 |
| 20260508135219 | 60 | 299 | 1.0 | 2.0 | 0.00 | 0.00 | 0.00 | 42 | 1006.2 |
| 20260508134710 | 61 | 300 | 1.0 | 2.0 | 0.00 | 0.00 | 0.00 | 41 | 1006.0 |
| 20260508134207 | 61 | 301 | 1.0 | 1.0 | 0.00 | 0.00 | 0.00 | 40 | 1006.3 |
| 20260508133704 | 62 | 301 | 0.0 | 0.0 | 0.00 | 0.00 | 0.00 | 44 | 1006.0 |
| 20260508133202 | 62 | 300 | 0.0 | 1.0 | 0.00 | 0.00 | 0.00 | 39 | 1006.4 |
| 20260508132659 | 62 | 300 | 0.0 | 1.0 | 0.00 | 0.00 | 0.00 | 40 | 1006.3 |
| 20260508132156 | 61 | 300 | 0.0 | 1.0 | 0.00 | 0.00 | 0.00 | 43 | 1006.3 |
| 20260508131651 | 61 | 300 | 1.0 | 1.0 | 0.00 | 0.00 | 0.00 | 41 | 1006.3 |
| 20260508131148 | 61 | 300 | 1.0 | 1.0 | 0.00 | 0.00 | 0.00 | 43 | 1006.3 |
| 20260508130645 | 60 | 300 | 1.0 | 1.0 | 0.00 | 0.00 | 0.00 | 47 | 1006.4 |
| 20260508130142 | 60 | 300 | 2.0 | 2.0 | 0.00 | 0.00 | 0.00 | 42 | 1006.3 |
| 20260508125637 | 60 | 299 | 0.0 | 0.0 | 0.00 | 0.00 | 0.00 | 44 | 1006.4 |
| 20260508125135 | 61 | 300 | 1.0 | 1.0 | 0.00 | 0.00 | 0.00 | 45 | 1006.3 |
| 20260508124633 | 60 | 299 | 1.0 | 1.0 | 0.00 | 0.00 | 0.00 | 42 | 1006.5 |
| 20260508124130 | 60 | 299 | 0.0 | 1.0 | 0.00 | 0.00 | 0.00 | 42 | 1006.6 |
| 20260508123628 | 60 | 299 | 0.0 | 0.0 | 0.00 | 0.00 | 0.00 | 43 | 1006.4 |
| 20260508123125 | 59 | 299 | 1.0 | 1.0 | 0.00 | 0.00 | 0.00 | 45 | 1006.4 |
| 20260508122621 | 59 | 299 | 1.0 | 1.0 | 0.00 | 0.00 | 0.00 | 48 | 1006.5 |
| 20260508122118 | 59 | 300 | 1.0 | 1.0 | 0.00 | 0.00 | 0.00 | 49 | 1006.6 |
| 20260508121617 | 59 | 300 | 1.0 | 1.0 | 0.00 | 0.00 | 0.00 | 46 | 1006.5 |
| 20260508121114 | 59 | 299 | 0.0 | 1.0 | 0.00 | 0.00 | 0.00 | 45 | 1006.5 |
| 20260508120611 | 59 | 299 | 0.0 | 0.0 | 0.00 | 0.00 | 0.00 | 44 | 1006.5 |
| 20260508120110 | 59 | 299 | 0.0 | 0.0 | 0.00 | 0.00 | 0.00 | 46 | 1006.6 |
| 20260508115607 | 59 | 299 | 0.0 | 1.0 | 0.00 | 0.00 | 0.00 | 46 | 1006.6 |
| 20260508115103 | 58 | 299 | 1.0 | 1.0 | 0.00 | 0.00 | 0.00 | 45 | 1006.6 |
| 20260508114601 | 57 | 299 | 0.0 | 1.0 | 0.00 | 0.00 | 0.00 | 49 | 1006.4 |
| 20260508114056 | 55 | 299 | 1.0 | 1.0 | 0.00 | 0.00 | 0.00 | 52 | 1006.5 |
| 20260508113554 | 55 | 299 | 1.0 | 1.0 | 0.00 | 0.00 | 0.00 | 53 | 1006.5 |
| 20260508113052 | 55 | 299 | 1.0 | 1.0 | 0.00 | 0.00 | 0.00 | 51 | 1006.6 |
| 20260508112548 | 56 | 299 | 0.0 | 0.0 | 0.00 | 0.00 | 0.00 | 51 | 1006.6 |
| 20260508112045 | 56 | 299 | 0.0 | 1.0 | 0.00 | 0.00 | 0.00 | 50 | 1006.6 |
| 20260508111542 | 55 | 299 | 0.0 | 0.0 | 0.00 | 0.00 | 0.00 | 50 | 1006.6 |
| 20260508111039 | 54 | 299 | 0.0 | 0.0 | 0.00 | 0.00 | 0.00 | 53 | 1006.5 |
| 20260508110537 | 53 | 299 | 0.0 | 1.0 | 0.00 | 0.00 | 0.00 | 54 | 1006.5 |
| 20260508110033 | 53 | 299 | 0.0 | 0.0 | 0.00 | 0.00 | 0.00 | 56 | 1006.6 |
| 20260508105527 | 50 | 299 | 0.0 | 0.0 | 0.00 | 0.00 | 0.00 | 59 | 1006.4 |
| 20260508105025 | 47 | 298 | 0.0 | 0.0 | 0.00 | 0.00 | 0.00 | 62 | 1006.6 |
| 20260508104523 | 44 | 298 | 0.0 | 0.0 | 0.00 | 0.00 | 0.00 | 68 | 1006.7 |
| 20260508104019 | 43 | 298 | 0.0 | 0.0 | 0.00 | 0.00 | 0.00 | 71 | 1006.6 |
| 20260508103516 | 43 | 298 | 0.0 | 0.0 | 0.00 | 0.00 | 0.00 | 71 | 1006.5 |
| 20260508103014 | 44 | 298 | 0.0 | 0.0 | 0.00 | 0.00 | 0.00 | 70 | 1006.4 |
| 20260508102511 | 42 | 298 | 0.0 | 0.0 | 0.00 | 0.00 | 0.00 | 74 | 1006.3 |
| 20260508102009 | 41 | 298 | 0.0 | 0.0 | 0.00 | 0.00 | 0.00 | 75 | 1006.4 |
| 20260508101506 | 40 | 298 | 0.0 | 0.0 | 0.00 | 0.00 | 0.00 | 75 | 1006.4 |
| 20260508101003 | 40 | 298 | 0.0 | 0.0 | 0.00 | 0.00 | 0.00 | 78 | 1006.3 |
| 20260508100501 | 40 | 298 | 0.0 | 0.0 | 0.00 | 0.00 | 0.00 | 80 | 1006.2 |
| 20260508095957 | 41 | 298 | 0.0 | 0.0 | 0.00 | 0.00 | 0.00 | 81 | 1006.1 |
| 20260508095455 | 42 | 298 | 1.0 | 1.0 | 0.00 | 0.00 | 0.00 | 79 | 1006.0 |
| 20260508094952 | 41 | 298 | 0.0 | 0.0 | 0.00 | 0.00 | 0.00 | 79 | 1006.1 |
| 20260508094448 | 39 | 298 | 0.0 | 0.0 | 0.00 | 0.00 | 0.00 | 74 | 1006.1 |
| 20260508093945 | 38 | 298 | 0.0 | 0.0 | 0.00 | 0.00 | 0.00 | 74 | 1005.7 |
| 20260508093442 | 38 | 298 | 0.0 | 0.0 | 0.00 | 0.00 | 0.00 | 75 | 1005.8 |
| 20260508092940 | 38 | 298 | 0.0 | 0.0 | 0.00 | 0.00 | 0.00 | 75 | 1005.7 |
| 20260508092438 | 38 | 298 | 0.0 | 0.0 | 0.00 | 0.00 | 0.00 | 75 | 1005.7 |
| 20260508091936 | 38 | 298 | 0.0 | 0.0 | 0.00 | 0.00 | 0.00 | 75 | 1005.7 |
| 20260508091432 | 38 | 298 | 0.0 | 0.0 | 0.00 | 0.00 | 0.00 | 75 | 1005.4 |
| 20260508090930 | 38 | 298 | 0.0 | 0.0 | 0.00 | 0.00 | 0.00 | 75 | 1005.5 |
| 20260508090429 | 38 | 298 | 0.0 | 0.0 | 0.00 | 0.00 | 0.00 | 75 | 1005.3 |
| 20260508085924 | 38 | 298 | 0.0 | 0.0 | 0.00 | 0.00 | 0.00 | 76 | 1005.1 |
| 20260508085421 | 38 | 298 | 0.0 | 0.0 | 0.00 | 0.00 | 0.00 | 76 | 1005.1 |
| 20260508084917 | 38 | 298 | 0.0 | 0.0 | 0.00 | 0.00 | 0.00 | 76 | 1005.1 |
| 20260508084414 | 38 | 298 | 0.0 | 0.0 | 0.00 | 0.00 | 0.00 | 76 | 1005.0 |
| 20260508083912 | 38 | 298 | 0.0 | 0.0 | 0.00 | 0.00 | 0.00 | 76 | 1005.0 |
| 20260508083409 | 38 | 298 | 0.0 | 0.0 | 0.00 | 0.00 | 0.00 | 77 | 1005.1 |
| 20260508082909 | 38 | 298 | 0.0 | 0.0 | 0.00 | 0.00 | 0.00 | 78 | 1005.2 |
| 20260508082407 | 38 | 298 | 0.0 | 0.0 | 0.00 | 0.00 | 0.00 | 78 | 1005.0 |
| 20260508081904 | 38 | 298 | 0.0 | 0.0 | 0.00 | 0.00 | 0.00 | 80 | 1005.0 |
| 20260508081401 | 39 | 298 | 0.0 | 0.0 | 0.00 | 0.00 | 0.00 | 83 | 1004.8 |
| 20260508080857 | 39 | 298 | 0.0 | 0.0 | 0.00 | 0.00 | 0.00 | 84 | 1004.8 |
| 20260508080356 | 40 | 298 | 0.0 | 0.0 | 0.00 | 0.00 | 0.00 | 83 | 1004.8 |
| 20260508075852 | 40 | 298 | 0.0 | 0.0 | 0.00 | 0.00 | 0.00 | 81 | 1004.8 |
| 20260508075349 | 41 | 298 | 0.0 | 0.0 | 0.00 | 0.00 | 0.00 | 79 | 1004.8 |
| 20260508074847 | 39 | 298 | 0.0 | 0.0 | 0.00 | 0.00 | 0.00 | 74 | 1004.7 |
| 20260508074343 | 39 | 298 | 0.0 | 0.0 | 0.00 | 0.00 | 0.00 | 70 | 1004.9 |
| 20260508073840 | 39 | 298 | 0.0 | 0.0 | 0.00 | 0.00 | 0.00 | 70 | 1004.7 |
| 20260508073338 | 40 | 298 | 0.0 | 0.0 | 0.00 | 0.00 | 0.00 | 70 | 1004.7 |
| 20260508072835 | 40 | 298 | 0.0 | 0.0 | 0.00 | 0.00 | 0.00 | 70 | 1004.6 |
| 20260508072331 | 40 | 298 | 0.0 | 0.0 | 0.00 | 0.00 | 0.00 | 70 | 1004.7 |
| 20260508071828 | 40 | 298 | 0.0 | 0.0 | 0.00 | 0.00 | 0.00 | 70 | 1004.6 |
| 20260508071327 | 40 | 298 | 0.0 | 0.0 | 0.00 | 0.00 | 0.00 | 71 | 1004.6 |
| 20260508070824 | 41 | 298 | 0.0 | 0.0 | 0.00 | 0.00 | 0.00 | 69 | 1004.7 |
| 20260508070322 | 41 | 298 | 0.0 | 0.0 | 0.00 | 0.00 | 0.00 | 70 | 1004.4 |
| 20260508065819 | 41 | 298 | 0.0 | 0.0 | 0.00 | 0.00 | 0.00 | 70 | 1004.5 |
| 20260508065317 | 41 | 298 | 0.0 | 0.0 | 0.00 | 0.00 | 0.00 | 68 | 1004.7 |
| 20260508064815 | 41 | 298 | 0.0 | 0.0 | 0.00 | 0.00 | 0.00 | 67 | 1004.5 |
| 20260508064312 | 41 | 298 | 0.0 | 0.0 | 0.00 | 0.00 | 0.00 | 65 | 1004.9 |
| 20260508063809 | 41 | 298 | 0.0 | 0.0 | 0.00 | 0.00 | 0.00 | 65 | 1005.0 |
| 20260508063308 | 41 | 298 | 0.0 | 0.0 | 0.00 | 0.00 | 0.00 | 66 | 1004.7 |
| 20260508062804 | 42 | 298 | 0.0 | 0.0 | 0.00 | 0.00 | 0.00 | 65 | 1004.9 |
| 20260508062305 | 42 | 298 | 0.0 | 0.0 | 0.00 | 0.00 | 0.00 | 66 | 1004.8 |
| 20260508061759 | 42 | 298 | 0.0 | 0.0 | 0.00 | 0.00 | 0.00 | 66 | 1004.9 |
| 20260508061256 | 42 | 298 | 0.0 | 0.0 | 0.00 | 0.00 | 0.00 | 64 | 1005.0 |
| 20260508060752 | 42 | 298 | 0.0 | 0.0 | 0.00 | 0.00 | 0.00 | 64 | 1004.9 |
| 20260508060250 | 43 | 298 | 0.0 | 0.0 | 0.00 | 0.00 | 0.00 | 65 | 1004.7 |
| 20260508055745 | 43 | 298 | 0.0 | 0.0 | 0.00 | 0.00 | 0.00 | 63 | 1004.9 |
| 20260508055243 | 43 | 298 | 0.0 | 0.0 | 0.00 | 0.00 | 0.00 | 64 | 1005.0 |
| 20260508054739 | 43 | 298 | 0.0 | 0.0 | 0.00 | 0.00 | 0.00 | 65 | 1004.9 |
| 20260508054238 | 43 | 298 | 0.0 | 0.0 | 0.00 | 0.00 | 0.00 | 66 | 1004.9 |
| 20260508053734 | 43 | 298 | 0.0 | 0.0 | 0.00 | 0.00 | 0.00 | 65 | 1005.1 |
| 20260508053231 | 43 | 298 | 0.0 | 0.0 | 0.00 | 0.00 | 0.00 | 65 | 1005.1 |
| 20260508052728 | 44 | 298 | 0.0 | 0.0 | 0.00 | 0.00 | 0.00 | 63 | 1005.3 |
| 20260508052226 | 44 | 298 | 0.0 | 0.0 | 0.00 | 0.00 | 0.00 | 62 | 1005.2 |
| 20260508051722 | 44 | 298 | 0.0 | 0.0 | 0.00 | 0.00 | 0.00 | 62 | 1005.3 |
| 20260508051217 | 44 | 298 | 0.0 | 0.0 | 0.00 | 0.00 | 0.00 | 62 | 1005.5 |
| 20260508050714 | 44 | 298 | 0.0 | 0.0 | 0.00 | 0.00 | 0.00 | 62 | 1005.5 |
| 20260508050212 | 45 | 298 | 0.0 | 0.0 | 0.00 | 0.00 | 0.00 | 62 | 1005.4 |
| 20260508045706 | 45 | 298 | 0.0 | 0.0 | 0.00 | 0.00 | 0.00 | 63 | 1005.5 |
| 20260508045205 | 45 | 298 | 0.0 | 0.0 | 0.00 | 0.00 | 0.00 | 64 | 1005.4 |
| 20260508044702 | 45 | 298 | 0.0 | 0.0 | 0.00 | 0.00 | 0.00 | 63 | 1005.4 |
| 20260508044158 | 45 | 298 | 0.0 | 0.0 | 0.00 | 0.00 | 0.00 | 63 | 1005.3 |
| 20260508043654 | 45 | 298 | 0.0 | 0.0 | 0.00 | 0.00 | 0.00 | 61 | 1005.3 |
| 20260508043152 | 45 | 298 | 0.0 | 0.0 | 0.00 | 0.00 | 0.00 | 61 | 1005.5 |
| 20260508042649 | 45 | 298 | 0.0 | 0.0 | 0.00 | 0.00 | 0.00 | 61 | 1005.6 |
| 20260508042146 | 46 | 298 | 0.0 | 0.0 | 0.00 | 0.00 | 0.00 | 60 | 1005.4 |
| 20260508041642 | 46 | 298 | 0.0 | 0.0 | 0.00 | 0.00 | 0.00 | 60 | 1005.5 |
| 20260508041139 | 46 | 298 | 0.0 | 0.0 | 0.00 | 0.00 | 0.00 | 61 | 1005.5 |
| 20260508040635 | 47 | 298 | 0.0 | 0.0 | 0.00 | 0.00 | 0.00 | 60 | 1005.3 |
| 20260508040133 | 47 | 298 | 0.0 | 0.0 | 0.00 | 0.00 | 0.00 | 60 | 1005.4 |
| 20260508035630 | 47 | 298 | 0.0 | 0.0 | 0.00 | 0.04 | 0.04 | 60 | 1005.3 |
| 20260508035127 | 47 | 298 | 0.0 | 0.0 | 0.00 | 0.04 | 0.04 | 57 | 1005.5 |
| 20260508034624 | 47 | 298 | 0.0 | 0.0 | 0.00 | 0.04 | 0.04 | 56 | 1005.5 |
| 20260508034121 | 47 | 298 | 0.0 | 0.0 | 0.00 | 0.04 | 0.04 | 55 | 1005.5 |
| 20260508033619 | 47 | 298 | 0.0 | 0.0 | 0.00 | 0.04 | 0.04 | 55 | 1005.2 |
| 20260508033117 | 48 | 298 | 0.0 | 0.0 | 0.00 | 0.04 | 0.04 | 54 | 1005.4 |
| 20260508032613 | 48 | 298 | 0.0 | 0.0 | 0.00 | 0.04 | 0.04 | 54 | 1005.4 |
| 20260508032110 | 48 | 298 | 0.0 | 0.0 | 0.00 | 0.04 | 0.04 | 52 | 1005.4 |
| 20260508031608 | 49 | 298 | 0.0 | 0.0 | 0.00 | 0.04 | 0.04 | 53 | 1005.2 |
| 20260508031103 | 49 | 298 | 0.0 | 0.0 | 0.00 | 0.04 | 0.04 | 54 | 1005.4 |
| 20260508030600 | 49 | 298 | 0.0 | 0.0 | 0.00 | 0.04 | 0.04 | 53 | 1005.5 |
| 20260508030058 | 49 | 298 | 0.0 | 0.0 | 0.00 | 0.04 | 0.04 | 53 | 1005.7 |
| 20260508025554 | 50 | 298 | 0.0 | 0.0 | 0.00 | 0.04 | 0.04 | 51 | 1005.6 |
| 20260508025051 | 50 | 298 | 0.0 | 0.0 | 0.00 | 0.04 | 0.04 | 50 | 1005.4 |
| 20260508024547 | 50 | 298 | 0.0 | 0.0 | 0.00 | 0.04 | 0.04 | 49 | 1005.2 |
| 20260508024044 | 50 | 298 | 0.0 | 0.0 | 0.00 | 0.04 | 0.04 | 49 | 1005.3 |
| 20260508023540 | 51 | 298 | 0.0 | 0.0 | 0.00 | 0.04 | 0.04 | 48 | 1005.3 |
| 20260508023038 | 51 | 298 | 0.0 | 0.0 | 0.00 | 0.04 | 0.04 | 48 | 1005.3 |
| 20260508022534 | 51 | 298 | 0.0 | 0.0 | 0.00 | 0.04 | 0.04 | 47 | 1005.2 |
| 20260508022031 | 51 | 298 | 0.0 | 0.0 | 0.00 | 0.04 | 0.04 | 47 | 1005.1 |
| 20260508021527 | 51 | 297 | 0.0 | 1.0 | 0.00 | 0.04 | 0.04 | 47 | 1005.2 |
| 20260508021022 | 52 | 297 | 1.0 | 1.0 | 0.00 | 0.04 | 0.04 | 46 | 1004.7 |
| 20260508020521 | 52 | 297 | 0.0 | 1.0 | 0.00 | 0.04 | 0.04 | 46 | 1005.0 |
| 20260508020018 | 53 | 297 | 0.0 | 1.0 | 0.00 | 0.04 | 0.04 | 45 | 1004.9 |
| 20260508015515 | 53 | 297 | 0.0 | 0.0 | 0.00 | 0.04 | 0.04 | 44 | 1004.8 |
| 20260508015012 | 53 | 297 | 0.0 | 1.0 | 0.00 | 0.04 | 0.04 | 44 | 1004.6 |
| 20260508014509 | 53 | 297 | 0.0 | 1.0 | 0.00 | 0.04 | 0.04 | 44 | 1004.6 |
| 20260508014005 | 53 | 297 | 1.0 | 1.0 | 0.00 | 0.04 | 0.04 | 43 | 1004.5 |
| 20260508013501 | 53 | 297 | 0.0 | 0.0 | 0.00 | 0.04 | 0.04 | 44 | 1004.5 |
| 20260508012959 | 54 | 297 | 0.0 | 0.0 | 0.00 | 0.04 | 0.04 | 43 | 1004.5 |
| 20260508012456 | 54 | 296 | 0.0 | 0.0 | 0.00 | 0.04 | 0.04 | 44 | 1004.4 |
| 20260508011953 | 54 | 296 | 0.0 | 0.0 | 0.00 | 0.04 | 0.04 | 44 | 1004.2 |
| 20260508011451 | 54 | 296 | 0.0 | 0.0 | 0.00 | 0.04 | 0.04 | 43 | 1004.3 |
| 20260508010948 | 54 | 296 | 0.0 | 0.0 | 0.00 | 0.04 | 0.04 | 42 | 1004.1 |
| 20260508010445 | 54 | 296 | 0.0 | 0.0 | 0.00 | 0.04 | 0.04 | 43 | 1004.0 |
| 20260508005942 | 55 | 296 | 0.0 | 0.0 | 0.00 | 0.04 | 0.04 | 42 | 1004.0 |
| 20260508005439 | 55 | 296 | 1.0 | 1.0 | 0.00 | 0.04 | 0.04 | 41 | 1003.9 |
| 20260508004935 | 55 | 296 | 0.0 | 0.0 | 0.00 | 0.04 | 0.04 | 43 | 1003.9 |
| 20260508004431 | 55 | 296 | 0.0 | 1.0 | 0.00 | 0.04 | 0.04 | 41 | 1003.9 |
| 20260508003928 | 55 | 296 | 0.0 | 0.0 | 0.00 | 0.04 | 0.04 | 43 | 1003.9 |
| 20260508003425 | 55 | 296 | 0.0 | 0.0 | 0.00 | 0.04 | 0.04 | 42 | 1003.4 |
| 20260508002922 | 55 | 296 | 0.0 | 0.0 | 0.00 | 0.04 | 0.04 | 44 | 1003.4 |
| 20260508002419 | 55 | 296 | 0.0 | 0.0 | 0.00 | 0.04 | 0.04 | 44 | 1003.5 |
| 20260508001915 | 55 | 296 | 0.0 | 0.0 | 0.00 | 0.04 | 0.04 | 47 | 1003.2 |
| 20260508001411 | 55 | 296 | 0.0 | 0.0 | 0.00 | 0.04 | 0.04 | 45 | 1003.4 |
| 20260508000908 | 55 | 296 | 0.0 | 0.0 | 0.00 | 0.04 | 0.04 | 45 | 1003.2 |
| 20260508000405 | 55 | 296 | 0.0 | 0.0 | 0.00 | 0.04 | 0.04 | 45 | 1003.2 |
| 20260507235901 | 56 | 296 | 0.0 | 0.0 | 0.00 | 0.04 | 0.04 | 45 | 1003.2 |
| 20260507235358 | 56 | 296 | 0.0 | 0.0 | 0.00 | 0.04 | 0.04 | 44 | 1003.1 |
| 20260507234855 | 56 | 296 | 0.0 | 0.0 | 0.00 | 0.04 | 0.04 | 44 | 1002.9 |
| 20260507234352 | 56 | 296 | 0.0 | 1.0 | 0.00 | 0.04 | 0.04 | 44 | 1002.8 |
| 20260507233848 | 56 | 296 | 0.0 | 0.0 | 0.00 | 0.04 | 0.04 | 43 | 1002.9 |
| 20260507233345 | 57 | 296 | 0.0 | 0.0 | 0.00 | 0.04 | 0.04 | 43 | 1002.9 |
| 20260507232844 | 57 | 296 | 0.0 | 0.0 | 0.00 | 0.04 | 0.04 | 42 | 1002.9 |
| 20260507232340 | 57 | 296 | 0.0 | 1.0 | 0.00 | 0.04 | 0.04 | 41 | 1002.7 |
| 20260507231838 | 58 | 296 | 1.0 | 2.0 | 0.00 | 0.04 | 0.04 | 40 | 1002.7 |
| 20260507231334 | 58 | 296 | 0.0 | 0.0 | 0.00 | 0.04 | 0.04 | 42 | 1002.7 |
| 20260507230830 | 58 | 296 | 1.0 | 2.0 | 0.00 | 0.04 | 0.04 | 40 | 1002.7 |
| 20260507230327 | 58 | 296 | 2.0 | 2.0 | 0.00 | 0.04 | 0.04 | 41 | 1002.7 |
| 20260507225827 | 59 | 296 | 0.0 | 0.0 | 0.00 | 0.04 | 0.04 | 40 | 1002.4 |
| 20260507225323 | 59 | 296 | 1.0 | 1.0 | 0.00 | 0.04 | 0.04 | 39 | 1002.6 |
| 20260507224820 | 59 | 295 | 0.0 | 1.0 | 0.00 | 0.04 | 0.04 | 41 | 1002.3 |
| 20260507224317 | 59 | 296 | 1.0 | 1.0 | 0.00 | 0.04 | 0.04 | 40 | 1002.1 |
| 20260507223813 | 60 | 296 | 0.0 | 1.0 | 0.00 | 0.04 | 0.04 | 40 | 1002.1 |
| 20260507223309 | 59 | 296 | 1.0 | 1.0 | 0.00 | 0.04 | 0.04 | 40 | 1002.3 |
| 20260507222807 | 59 | 296 | 1.0 | 1.0 | 0.00 | 0.04 | 0.04 | 40 | 1002.3 |
| 20260507222305 | 60 | 296 | 2.0 | 2.0 | 0.00 | 0.04 | 0.04 | 39 | 1002.0 |
| 20260507221800 | 60 | 295 | 2.0 | 2.0 | 0.00 | 0.04 | 0.04 | 39 | 1002.2 |
| 20260507221256 | 60 | 295 | 3.0 | 3.0 | 0.00 | 0.04 | 0.04 | 38 | 1001.8 |
| 20260507220752 | 61 | 295 | 2.0 | 2.0 | 0.00 | 0.04 | 0.04 | 38 | 1002.0 |
| 20260507220251 | 61 | 295 | 2.0 | 2.0 | 0.00 | 0.04 | 0.04 | 37 | 1001.8 |
| 20260507215747 | 61 | 295 | 1.0 | 2.0 | 0.00 | 0.04 | 0.04 | 40 | 1001.9 |
| 20260507215244 | 61 | 295 | 1.0 | 2.0 | 0.00 | 0.04 | 0.04 | 39 | 1001.9 |
| 20260507214741 | 61 | 295 | 1.0 | 1.0 | 0.00 | 0.04 | 0.04 | 39 | 1001.8 |
| 20260507214238 | 61 | 295 | 2.0 | 2.0 | 0.00 | 0.04 | 0.04 | 37 | 1001.9 |
| 20260507213733 | 61 | 295 | 2.0 | 2.0 | 0.00 | 0.04 | 0.04 | 39 | 1002.0 |
| 20260507213231 | 61 | 295 | 2.0 | 3.0 | 0.00 | 0.04 | 0.04 | 37 | 1001.8 |
| 20260507212727 | 62 | 295 | 2.0 | 2.0 | 0.00 | 0.04 | 0.04 | 36 | 1001.9 |
| 20260507212224 | 62 | 295 | 1.0 | 1.0 | 0.00 | 0.04 | 0.04 | 37 | 1001.7 |
| 20260507211720 | 62 | 295 | 3.0 | 3.0 | 0.00 | 0.04 | 0.04 | 37 | 1001.8 |
| 20260507211216 | 62 | 298 | 1.0 | 1.0 | 0.00 | 0.04 | 0.04 | 35 | 1001.8 |
| 20260507210714 | 62 | 298 | 1.0 | 1.0 | 0.00 | 0.04 | 0.04 | 38 | 1001.6 |
| 20260507210210 | 62 | 298 | 2.0 | 2.0 | 0.00 | 0.04 | 0.04 | 38 | 1001.6 |
| 20260507205707 | 62 | 300 | 1.0 | 2.0 | 0.00 | 0.04 | 0.04 | 37 | 1001.8 |
| 20260507205204 | 62 | 300 | 3.0 | 3.0 | 0.00 | 0.04 | 0.04 | 37 | 1001.7 |
| 20260507204700 | 62 | 300 | 2.0 | 2.0 | 0.00 | 0.04 | 0.04 | 38 | 1001.7 |
| 20260507204158 | 62 | 300 | 0.0 | 1.0 | 0.00 | 0.04 | 0.04 | 41 | 1001.6 |
| 20260507203656 | 62 | 300 | 2.0 | 3.0 | 0.00 | 0.04 | 0.04 | 39 | 1001.4 |
| 20260507203153 | 63 | 301 | 1.0 | 2.0 | 0.00 | 0.04 | 0.04 | 38 | 1001.5 |